Jacksonville, IL

9:15 AM CDT on October 15, 2019 (GMT -0500)
Jacksonville Municipal

Weather History for KIJX - September, 2019

Change the Weather History Date:

Tuesday, September 17, 2019

  Actual Average (WUND) Record (WUND)
Temperature  
Mean Temperature 73 °F -  
Max Temperature 85 °F - - (-1)
Min Temperature 62 °F - - (-1)
Cooling Degree Days 8    
Growing Degree Days 23 (Base 50)    
Moisture  
Dew Point 66 °F    
Average Humidity 83    
Maximum Humidity 100    
Minimum Humidity 54    
Precipitation  
Precipitation 0.00 in - - ()
Sea Level Pressure  
Sea Level Pressure 30.08 in    
Wind  
Wind Speed 5 mph (East)    
Max Wind Speed 10 mph    
Max Gust Speed -    
Visibility 8 miles    
Events      
Averages and records for this station are not official NWS values.
T = Trace of Precipitation, MM = Missing Value Source: NWS Daily Summary

Daily Weather History Graph

Daily Weather History Graph

Search for Another Location

Airport or City:

Astronomy

Sep. 17, 2019 Rise Set
Actual Time 6:43 AM CDT 7:06 PM CDT
Civil Twilight 6:16 AM CDT 7:33 PM CDT
Nautical Twilight 5:44 AM CDT 8:05 PM CDT
Astronomical Twilight 5:12 AM CDT 8:37 PM CDT
Moon 9:10 PM CDT (9/17) 9:47 AM CDT (9/17)
Length of Visible Light 13h 16m
Length of Day
12h 22m
Waning Gibbous, 89% of the Moon is Illuminated
Sep 17
Waning Gibbous
Sep 21
Last Quarter
Sep 28
New
Oct 5
First Quarter
Oct 13
Full

Hourly Weather History & Observations

Time (CDT) Temp. Heat Index Dew Point Humidity Pressure Visibility Wind Dir Wind Speed Gust Speed Precip Events Conditions
12:15 AM 67.3 °F - 65.8 °F 95% 30.08 in 7.0 mi ENE 4.6 mph - N/A   Clear
12:37 AM 66.2 °F - 66.2 °F 100% 30.09 in 7.0 mi East 3.5 mph - N/A   Clear
12:55 AM 66.6 °F - 65.5 °F 96% 30.09 in 7.0 mi East 3.5 mph - N/A   Clear
1:15 AM 66.4 °F - 65.3 °F 96% 30.09 in 7.0 mi East 5.8 mph - N/A   Clear
1:35 AM 66.2 °F - 64.9 °F 96% 30.09 in 7.0 mi ENE 4.6 mph - N/A   Clear
2:15 AM 64.9 °F - 64.4 °F 98% 30.10 in 5.0 mi Calm Calm - N/A   Clear
2:35 AM 65.3 °F - 64.4 °F 97% 30.09 in 5.0 mi ENE 4.6 mph - N/A   Scattered Clouds
2:55 AM 64.8 °F - 64.0 °F 98% 30.09 in 5.0 mi ENE 4.6 mph - N/A   Scattered Clouds
3:15 AM 64.8 °F - 63.9 °F 97% 30.09 in 5.0 mi ENE 3.5 mph - N/A   Clear
3:35 AM 64.4 °F - 63.5 °F 97% 30.09 in 5.0 mi ENE 3.5 mph - N/A   Clear
3:55 AM 64.4 °F - 63.7 °F 98% 30.09 in 5.0 mi ENE 4.6 mph - N/A   Clear
4:15 AM 64.4 °F - 63.7 °F 98% 30.09 in 5.0 mi ENE 3.5 mph - N/A   Clear
4:30 AM 64.6 °F - 63.9 °F 98% 30.09 in 5.0 mi ENE 4.6 mph - N/A   Clear
4:55 AM 64.2 °F - 63.5 °F 98% 30.09 in 4.0 mi East 4.6 mph - N/A   Clear
5:15 AM 63.9 °F - 63.1 °F 97% 30.10 in 4.0 mi East 3.5 mph - N/A   Clear
5:35 AM 63.5 °F - 63.0 °F 98% 30.10 in 3.0 mi ENE 4.6 mph - N/A   Clear
5:55 AM 63.7 °F - 63.1 °F 98% 30.10 in 3.0 mi ENE 5.8 mph - N/A   Clear
6:35 AM 62.6 °F - 62.1 °F 98% 30.12 in 3.0 mi Calm Calm - N/A   Clear
6:50 AM 62.6 °F - 61.9 °F 97% 30.12 in 1.8 mi East 3.5 mph - N/A   Mist
7:15 AM 62.1 °F - 61.7 °F 99% 30.13 in 1.8 mi East 4.6 mph - N/A   Scattered Clouds
7:35 AM 62.8 °F - 62.4 °F 99% 30.13 in 1.8 mi ENE 5.8 mph - N/A   Scattered Clouds
7:55 AM 63.5 °F - 63.0 °F 98% 30.13 in 1.8 mi East 6.9 mph - N/A   Mostly Cloudy
8:15 AM 64.6 °F - 64.0 °F 98% 30.13 in 2.0 mi East 6.9 mph - N/A   Overcast
8:35 AM 66.0 °F - 64.9 °F 96% 30.13 in 3.0 mi East 10.4 mph - N/A   Mostly Cloudy
8:55 AM 67.1 °F - 65.5 °F 95% 30.13 in 4.0 mi East 8.1 mph - N/A   Mostly Cloudy
9:15 AM 68.7 °F - 65.8 °F 90% 30.14 in 5.0 mi ENE 6.9 mph - N/A   Scattered Clouds
9:35 AM 70.9 °F - 66.6 °F 86% 30.13 in 7.0 mi East 8.1 mph - N/A   Clear
10:15 AM 73.4 °F - 67.5 °F 82% 30.13 in 10.0 mi ESE 4.6 mph - N/A   Clear
10:35 AM 74.7 °F - 68.4 °F 81% 30.13 in 10.0 mi ESE 5.8 mph - N/A   Clear
10:55 AM 76.6 °F - 68.9 °F 77% 30.13 in 10.0 mi ESE 5.8 mph - N/A   Clear
11:10 AM 77.5 °F - 68.9 °F 75% 30.13 in 10.0 mi SE 5.8 mph - N/A   Clear
11:35 AM 79.0 °F - 68.4 °F 70% 30.12 in 3.0 mi ESE 5.8 mph - N/A   Haze
11:55 AM 80.2 °F 83.1 °F 68.7 °F 68% 30.11 in 10.0 mi ESE 8.1 mph - N/A   Clear
12:15 PM 81.3 °F 84.5 °F 69.1 °F 66% 30.11 in 10.0 mi East 9.2 mph - N/A   Clear
12:55 PM 82.4 °F 84.8 °F 66.9 °F 59% 30.10 in 10.0 mi ESE 6.9 mph - N/A   Clear
1:15 PM 83.5 °F 86.4 °F 68.0 °F 59% 30.10 in 10.0 mi East 3.5 mph - N/A   Clear
1:35 PM 84.2 °F 87.3 °F 67.8 °F 58% 30.09 in 10.0 mi SE 8.1 mph - N/A   Clear
1:55 PM 84.2 °F 87.3 °F 67.8 °F 58% 30.08 in 10.0 mi ESE 6.9 mph - N/A   Clear
2:15 PM 83.8 °F 86.7 °F 67.6 °F 58% 30.08 in 10.0 mi SE 9.2 mph - N/A   Clear
2:35 PM 83.8 °F 86.3 °F 66.7 °F 56% 30.07 in 10.0 mi ESE 6.9 mph - N/A   Clear
2:55 PM 84.9 °F 88.2 °F 68.2 °F 57% 30.07 in 10.0 mi ESE 6.9 mph - N/A   Clear
3:15 PM 84.0 °F 86.5 °F 66.9 °F 56% 30.06 in 10.0 mi East 10.4 mph - N/A   Clear
3:35 PM 84.9 °F 87.6 °F 67.3 °F 55% 30.06 in 10.0 mi SE 8.1 mph - N/A   Clear
3:55 PM 84.6 °F 86.8 °F 66.0 °F 54% 30.06 in 10.0 mi East 9.2 mph - N/A   Clear
4:15 PM 83.1 °F 85.9 °F 67.3 °F 59% 30.05 in 10.0 mi East 4.6 mph - N/A   Clear
4:35 PM 84.9 °F 88.2 °F 68.0 °F 57% 30.05 in 10.0 mi SE 6.9 mph - N/A   Clear
4:55 PM 84.2 °F 87.3 °F 67.8 °F 58% 30.05 in 10.0 mi ESE 8.1 mph - N/A   Clear
5:15 PM 83.5 °F 86.0 °F 66.7 °F 57% 30.05 in 10.0 mi SE 6.9 mph - N/A   Clear
5:35 PM 82.6 °F 85.1 °F 67.1 °F 59% 30.05 in 10.0 mi ESE 8.1 mph - N/A   Clear
5:55 PM 81.5 °F 83.7 °F 66.6 °F 60% 30.05 in 10.0 mi SE 6.9 mph - N/A   Clear
6:15 PM 80.8 °F 83.2 °F 67.3 °F 63% 30.04 in 10.0 mi ESE 4.6 mph - N/A   Clear
6:35 PM 79.2 °F - 68.0 °F 69% 30.04 in 10.0 mi ESE 5.8 mph - N/A   Clear
6:55 PM 75.2 °F - 67.5 °F 77% 30.04 in 10.0 mi East 5.8 mph - N/A   Clear
7:15 PM 73.4 °F - 68.0 °F 83% 30.04 in 10.0 mi ENE 4.6 mph - N/A   Clear
7:35 PM 71.6 °F - 68.0 °F 88% 30.04 in 10.0 mi East 5.8 mph - N/A   Clear
7:55 PM 70.2 °F - 67.3 °F 91% 30.04 in 10.0 mi East 5.8 mph - N/A   Clear
8:15 PM 69.4 °F - 66.4 °F 90% 30.05 in 10.0 mi East 6.9 mph - N/A   Clear
8:35 PM 69.6 °F - 66.2 °F 89% 30.05 in 10.0 mi East 8.1 mph - N/A   Clear
8:55 PM 69.3 °F - 66.2 °F 90% 30.05 in 10.0 mi East 6.9 mph - N/A   Clear
9:15 PM 68.0 °F - 65.3 °F 91% 30.05 in 10.0 mi East 5.8 mph - N/A   Clear
9:35 PM 67.3 °F - 65.3 °F 93% 30.05 in 10.0 mi East 4.6 mph - N/A   Clear
9:55 PM 66.7 °F - 64.8 °F 93% 30.06 in 10.0 mi East 4.6 mph - N/A   Clear
10:15 PM 66.2 °F - 64.4 °F 94% 30.06 in 10.0 mi Calm Calm - N/A   Clear
10:35 PM 67.6 °F - 64.8 °F 90% 30.06 in 10.0 mi ESE 5.8 mph - N/A   Clear
10:55 PM 67.5 °F - 64.4 °F 90% 30.07 in 10.0 mi ESE 5.8 mph - N/A   Clear
11:15 PM 67.1 °F - 64.4 °F 91% 30.07 in 10.0 mi East 4.6 mph - N/A   Clear
11:35 PM 67.1 °F - 64.4 °F 91% 30.07 in 10.0 mi East 5.8 mph - N/A   Clear
11:55 PM 67.5 °F - 64.6 °F 90% 30.07 in 10.0 mi ESE 5.8 mph - N/A   Clear